This demonstration page uses our WeatherBlox Daily Observations layout. Learn more.

Left ArrowRight Arrow

Hourly Observations for August 27, 2020

Temp ( °F °C ) Dew Point ( °F °C ) Humidity (%) Winds ( mph kmh ) Pressure ( in mb ) Visibility ( mi km ) Precip ( " mm )
12:52 am 00:52 Mostly Cloudy 74 23.3 68 20 82 82 W 6 9 29.93 1013 10 16 0.00 0.00
1:52 am 01:52 Clear 73 22.8 68 20 84 84 W 3 6 29.92 1013 10 16 0.00 0.00
2:52 am 02:52 Clear 72 22.2 68 20 87 87 Calm 29.91 1013 10 16 0.00 0.00
3:52 am 03:52 Clear 73 22.8 69 20.6 87 87 SE 6 9 29.90 1012 10 16 0.00 0.00
4:52 am 04:52 Partly Cloudy 74 23.3 71 21.7 91 91 SSE 12 19 29.90 1012 10 16 0.00 0.00
5:52 am 05:52 Mostly Clear 73 22.8 71 21.7 94 94 SE 12 19 29.90 1012 10 16 0.00 0.00
6:22 am 06:22 Mostly Cloudy 73 22.8 71 21.7 94 94 SSE 10 17 29.89 1012 10 16 0.00 0.00
6:52 am 06:52 Partly Cloudy 73 22.8 71 21.7 94 94 SSE 9 15 29.91 1013 10 16 0.00 0.00
7:48 am 07:48 Mostly Cloudy 73 23 72 22 94 94 SSE 12 19 29.90 1013 10 16 0.00 0.00
7:52 am 07:52 Mostly Cloudy 73 22.8 71 21.7 94 94 SSE 10 17 29.92 1013 10 16 0.00 0.00
8:52 am 08:52 Mostly Cloudy 75 23.9 71 21.7 88 88 SSE 9 15 29.92 1013 10 16 0.00 0.00
9:03 am 09:03 Mostly Cloudy 75 23.9 71 21.7 88 88 SSE 9 15 29.91 1013 10 16 0.00 0.00
9:16 am 09:16 Partly Cloudy 75 23.9 71 21.7 88 88 SSE 12 19 29.91 1013 10 16 0.00 0.00
9:52 am 09:52 Mostly Cloudy 75 23.9 71 21.7 88 88 S 8 13 29.93 1014 10 16 0.00 0.00
10:24 am 10:24 Cloudy with Heavy Rain 74 23.3 72 22.2 94 94 S 7 11 29.93 1014 2 3 0.03 0.76
10:28 am 10:28 Cloudy with Nearby Thunderstorms 73 22.8 72 22.2 96 96 S 6 9 29.93 1014 2 3 0.08 2.03
10:36 am 10:36 Cloudy with Thunderstorms 74 23.3 72 22.2 94 94 SSW 6 9 29.93 1014 10 16 0.09 2.29
10:52 am 10:52 Mostly Cloudy with Thunderstorms 74 23.3 73 22.8 97 97 SSE 3 6 29.93 1014 10 16 0.09 2.29
11:10 am 11:10 Partly Cloudy with Nearby Thunderstorms 75 23.9 73 22.8 94 94 S 5 7 29.92 1013 10 16 0.00 0.00
11:21 am 11:21 Mostly Cloudy with Nearby Thunderstorms 76 24.4 73 22.8 91 91 S 5 7 29.91 1013 10 16 0.00 0.00
11:31 am 11:31 Mostly Cloudy with Nearby Thunderstorms 76 24.4 73 22.8 91 91 S 7 11 29.91 1013 10 16 0.00 0.00
11:42 am 11:42 Mostly Cloudy 76 24.4 73 22.8 91 91 S 6 9 29.91 1013 10 16 0.00 0.00
11:52 am 11:52 Mostly Cloudy 76 24.4 73 22.8 91 91 SSE 6 9 29.93 1014 10 16 0.00 0.00
12:52 pm 12:52 Sunny 79 26.1 72 22.2 79 79 SSE 7 11 29.92 1013 10 16 0.00 0.00
1:52 pm 13:52 Sunny 80 26.7 70 21.1 71 71 Calm 29.91 1013 10 16 0.00 0.00
2:52 pm 14:52 Mostly Cloudy 81 27.2 70 21.1 69 69 NE 7 11 29.89 1012 10 16 0.00 0.00
4:52 pm 16:52 Sunny 79 26.1 74 23.3 85 85 N 10 17 29.81 1010 10 16 0.00 0.00
5:52 pm 17:52 Sunny 79 26.1 73 22.8 82 82 ENE 10 17 29.78 1008 10 16 0.00 0.00
6:52 pm 18:52 Sunny 79 26.1 71 21.7 77 77 E 12 19 29.78 1009 10 16 0.00 0.00
7:52 pm 19:52 Clear 78 25.6 72 22.2 82 82 NE 7 11 29.78 1008 10 16 0.00 0.00
8:52 pm 20:52 Clear 76 24.4 72 22.2 88 88 NNE 8 13 29.78 1008 10 16 0.00 0.00
9:52 pm 21:52 Clear 75 23.9 71 21.7 88 88 NNE 9 15 29.76 1008 10 16 0.00 0.00
10:52 pm 22:52 Mostly Clear 74 23.3 71 21.7 91 91 NNE 8 13 29.76 1008 10 16 0.00 0.00
11:52 pm 23:52 Mostly Cloudy 74 23.3 71 21.7 91 91 NNE 8 13 29.75 1007 10 16 0.00 0.00

Powered by AerisWeather